When you browse on this site, cookies collect data to enhance your experience and personalize the content and advertising you see.
Visit our Privacy Policy to learn more. By continuing to use the site, you agree to this use of cookies and data.
  • In Latvia
  • List of Countries
  • For 7 days
  • Water Temperature
  • Satellite Maps
  • Weather Map
  • Weather Widgets
  • user-avatar
    Login

    Hourly Weather Sonnenberg

    Today, 26 May, Sunday

    Time Temperature Precipitation Wind Pressure Humidity
    00:00 +10°C° 0 mm 1 mps 710 mmHg 92%
    01:00 +9°C° 0 mm 1 mps 710 mmHg 92%
    02:00 +9°C° 0 mm 1 mps 710 mmHg 92%
    03:00 +9°C° 0 mm 1 mps 710 mmHg 92%
    04:00 +9°C° 0 mm 1 mps 710 mmHg 92%
    05:00 +9°C° 0 mm 0 mps 710 mmHg 91%
    06:00 +10°C° 0 mm 0 mps 711 mmHg 89%
    07:00 +12°C° 0 mm 0 mps 711 mmHg 87%
    08:00 +14°C° 0 mm 0 mps 711 mmHg 78%
    09:00 +16°C° 0 mm 0 mps 711 mmHg 70%
    10:00 +18°C° 0 mm 0 mps 711 mmHg 62%
    11:00 +19°C° 0 mm 0 mps 711 mmHg 57%
    12:00 +22°C° 0 mm 1 mps 711 mmHg 52%
    13:00 +24°C° 0 mm 1 mps 711 mmHg 48%
    14:00 +23°C° 0 mm 1 mps 711 mmHg 48%
    15:00 +23°C° 0 mm 1 mps 710 mmHg 48%
    16:00 +23°C° 0 mm 1 mps 710 mmHg 48%
    17:00 +21°C° 0 mm 1 mps 710 mmHg 56%
    18:00 +20°C° 0 mm 1 mps 709 mmHg 64%
    19:00 +19°C° 0 mm 1 mps 709 mmHg 72%
    20:00 +16°C° 0 mm 1 mps 709 mmHg 78%
    21:00 +14°C° 0 mm 1 mps 709 mmHg 83%
    22:00 +12°C° 0 mm 1 mps 709 mmHg 88%
    23:00 +12°C° 0 mm 1 mps 709 mmHg 89%

    Tomorrow, 27 May, Monday

    Time Temperature Precipitation Wind Pressure Humidity
    00:00 +11°C° 0 mm 0 mps 709 mmHg 89%
    01:00 +11°C° 0 mm 0 mps 709 mmHg 89%
    02:00 +11°C° 0 mm 0 mps 708 mmHg 91%
    03:00 +10°C° 0 mm 0 mps 708 mmHg 93%
    04:00 +9°C° 0 mm 0 mps 707 mmHg 94%
    05:00 +11°C° 0 mm 0 mps 708 mmHg 91%
    06:00 +12°C° 0 mm 0 mps 708 mmHg 87%
    07:00 +13°C° 0 mm 0 mps 708 mmHg 83%
    08:00 +15°C° 0 mm 0 mps 708 mmHg 76%
    09:00 +19°C° 0 mm 1 mps 708 mmHg 68%
    10:00 +20°C° 0 mm 1 mps 708 mmHg 61%
    11:00 +21°C° 0.1 mm 1 mps 708 mmHg 57%
    12:00 +22°C° 0.1 mm 1 mps 708 mmHg 54%
    13:00 +23°C° 0.1 mm 2 mps 707 mmHg 50%
    14:00 +21°C° 0.1 mm 2 mps 707 mmHg 53%
    15:00 +21°C° 0.1 mm 2 mps 707 mmHg 56%
    16:00 +21°C° 0.1 mm 2 mps 706 mmHg 59%
    17:00 +19°C° 0.3 mm 2 mps 706 mmHg 68%
    18:00 +18°C° 0.3 mm 2 mps 706 mmHg 78%
    19:00 +16°C° 0.3 mm 2 mps 706 mmHg 87%
    20:00 +15°C° 0.7 mm 2 mps 706 mmHg 90%
    21:00 +14°C° 0.7 mm 1 mps 706 mmHg 93%
    22:00 +13°C° 0.7 mm 1 mps 706 mmHg 95%
    23:00 +13°C° 0.6 mm 1 mps 705 mmHg 96%

    Day after tomorrow, 28 May, Tuesday

    Time Temperature Precipitation Wind Pressure Humidity
    00:00 +13°C° 0.6 mm 1 mps 705 mmHg 96%
    01:00 +13°C° 0.6 mm 1 mps 705 mmHg 97%
    02:00 +13°C° 0.3 mm 1 mps 705 mmHg 97%
    03:00 +12°C° 0.3 mm 1 mps 704 mmHg 97%
    04:00 +12°C° 0.3 mm 1 mps 704 mmHg 97%
    05:00 +12°C° 0.6 mm 1 mps 704 mmHg 97%
    06:00 +12°C° 0.6 mm 1 mps 704 mmHg 97%
    07:00 +12°C° 0.6 mm 2 mps 704 mmHg 97%
    08:00 +12°C° 0.6 mm 2 mps 705 mmHg 95%
    09:00 +12°C° 0.6 mm 2 mps 705 mmHg 94%
    10:00 +12°C° 0.6 mm 2 mps 705 mmHg 93%
    11:00 +12°C° 0.7 mm 2 mps 705 mmHg 92%
    12:00 +12°C° 0.7 mm 2 mps 705 mmHg 91%
    13:00 +12°C° 0.7 mm 2 mps 705 mmHg 90%
    14:00 +13°C° 0.6 mm 2 mps 705 mmHg 89%
    15:00 +13°C° 0.6 mm 2 mps 705 mmHg 87%
    16:00 +13°C° 0.6 mm 3 mps 705 mmHg 85%
    17:00 +12°C° 0.7 mm 3 mps 705 mmHg 87%
    18:00 +12°C° 0.7 mm 2 mps 706 mmHg 89%
    19:00 +10°C° 0.7 mm 2 mps 706 mmHg 91%
    20:00 +9°C° 0.3 mm 2 mps 706 mmHg 93%
    21:00 +8°C° 0.3 mm 2 mps 707 mmHg 94%
    22:00 +7°C° 0.3 mm 2 mps 707 mmHg 95%
    23:00 +7°C° 0.2 mm 2 mps 707 mmHg 95%

    29 May, Wednesday

    Time Temperature Precipitation Wind Pressure Humidity
    00:00 +8°C° 0.2 mm 1 mps 708 mmHg 95%
    01:00 +7°C° 0.2 mm 1 mps 708 mmHg 95%
    02:00 +7°C° 0 mm 1 mps 708 mmHg 95%
    03:00 +7°C° 0 mm 1 mps 708 mmHg 95%
    04:00 +7°C° 0 mm 1 mps 708 mmHg 96%
    05:00 +7°C° 0.1 mm 1 mps 708 mmHg 95%
    06:00 +8°C° 0.1 mm 1 mps 709 mmHg 95%
    07:00 +9°C° 0.1 mm 1 mps 709 mmHg 94%
    08:00 +10°C° 0.2 mm 1 mps 710 mmHg 89%
    09:00 +11°C° 0.2 mm 1 mps 710 mmHg 84%
    10:00 +12°C° 0.2 mm 2 mps 710 mmHg 80%
    11:00 +12°C° 0.4 mm 1 mps 711 mmHg 78%
    12:00 +13°C° 0.4 mm 1 mps 711 mmHg 77%
    13:00 +14°C° 0.4 mm 1 mps 711 mmHg 75%
    14:00 +14°C° 0.7 mm 1 mps 711 mmHg 77%
    15:00 +14°C° 0.7 mm 1 mps 711 mmHg 78%
    16:00 +14°C° 0.7 mm 1 mps 712 mmHg 79%
    17:00 +14°C° 0.6 mm 1 mps 712 mmHg 82%
    18:00 +13°C° 0.6 mm 1 mps 712 mmHg 84%
    19:00 +12°C° 0.6 mm 0 mps 713 mmHg 86%
    20:00 +11°C° 0.1 mm 1 mps 713 mmHg 88%
    21:00 +10°C° 0.1 mm 1 mps 714 mmHg 90%
    22:00 +8°C° 0.1 mm 1 mps 714 mmHg 91%
    23:00 +8°C° 0 mm 1 mps 714 mmHg 91%

    30 May, Thursday

    Time Temperature Precipitation Wind Pressure Humidity
    00:00 +7°C° 0 mm 1 mps 714 mmHg 91%
    01:00 +7°C° 0 mm 1 mps 715 mmHg 91%
    02:00 +6°C° 0 mm 1 mps 715 mmHg 90%
    03:00 +6°C° 0 mm 1 mps 715 mmHg 90%
    04:00 +6°C° 0 mm 1 mps 715 mmHg 90%
    05:00 +7°C° 0 mm 1 mps 715 mmHg 87%
    06:00 +9°C° 0 mm 1 mps 715 mmHg 84%
    07:00 +9°C° 0 mm 0 mps 715 mmHg 82%
    08:00 +12°C° 0 mm 1 mps 716 mmHg 73%
    09:00 +15°C° 0 mm 1 mps 716 mmHg 63%
    10:00 +18°C° 0 mm 1 mps 716 mmHg 54%
    11:00 +19°C° 0 mm 1 mps 716 mmHg 49%
    12:00 +20°C° 0 mm 1 mps 716 mmHg 43%
    13:00 +21°C° 0 mm 1 mps 716 mmHg 38%
    14:00 +20°C° 0 mm 2 mps 716 mmHg 39%
    15:00 +20°C° 0 mm 2 mps 716 mmHg 39%
    16:00 +20°C° 0 mm 2 mps 716 mmHg 40%
    17:00 +19°C° 0 mm 2 mps 716 mmHg 49%
    18:00 +19°C° 0 mm 1 mps 716 mmHg 59%
    19:00 +18°C° 0 mm 1 mps 716 mmHg 68%
    20:00 +15°C° 0 mm 1 mps 716 mmHg 74%
    21:00 +13°C° 0 mm 1 mps 716 mmHg 80%
    22:00 +11°C° 0 mm 1 mps 716 mmHg 86%
    23:00 +11°C° 0 mm 1 mps 716 mmHg 86%

    31 May, Friday

    Time Temperature Precipitation Wind Pressure Humidity
    00:00 +11°C° 0 mm 1 mps 716 mmHg 85%
    01:00 +11°C° 0 mm 1 mps 716 mmHg 85%
    02:00 +11°C° 0 mm 1 mps 716 mmHg 84%
    03:00 +11°C° 0 mm 1 mps 715 mmHg 83%
    04:00 +11°C° 0 mm 1 mps 715 mmHg 82%
    05:00 +10°C° 1.1 mm 2 mps 715 mmHg 86%
    06:00 +10°C° 1.1 mm 2 mps 715 mmHg 90%
    07:00 +10°C° 1.1 mm 2 mps 715 mmHg 94%
    08:00 +10°C° 2.2 mm 2 mps 715 mmHg 94%
    09:00 +12°C° 2.2 mm 1 mps 715 mmHg 95%
    10:00 +12°C° 2.2 mm 1 mps 716 mmHg 96%
    11:00 +13°C° 1.4 mm 1 mps 716 mmHg 94%
    12:00 +13°C° 1.4 mm 2 mps 716 mmHg 93%
    13:00 +14°C° 1.4 mm 2 mps 716 mmHg 92%
    14:00 +15°C° 0.6 mm 2 mps 716 mmHg 89%
    15:00 +17°C° 0.6 mm 2 mps 716 mmHg 85%
    16:00 +18°C° 0.6 mm 2 mps 717 mmHg 82%
    17:00 +18°C° 1.1 mm 1 mps 717 mmHg 86%
    18:00 +16°C° 1.1 mm 1 mps 717 mmHg 89%
    19:00 +16°C° 1.1 mm 1 mps 717 mmHg 92%
    20:00 +15°C° 0.7 mm 1 mps 717 mmHg 93%
    21:00 +14°C° 0.7 mm 1 mps 717 mmHg 94%
    22:00 +13°C° 0.7 mm 1 mps 718 mmHg 95%
    23:00 +13°C° 0.1 mm 1 mps 718 mmHg 96%
    Show more